Starlink 11088

operational
NORAD ID: 59709 Int'l Des: 2024-088 Owner: SPXS Country: US Constellation: starlink
LEOCIRCULAR

Über Starlink 11088

Beschreibung wird geladen...

Live-Position

3D-Globus wird geladen...

Nächste Überflüge

Höhenverlauf

Altitude vs Time

uPlot chart will show altitude changes over time

Zweizeiliger Elementsatz

1 59709U 24088B 25258.76184623 .00023092 00000-0 19449-3 0 9997
2 59709 53.1578 108.9136 0000581 99.0751 261.0332 15.69764491 78794
Epoch: 15. Sept. 2025 • Age: 15 hours

Aktueller Status

Höhe 360.8 km
Geschwindigkeit 7.69 km/s
Subsatellitenpunkt -1.94°S, 34.57°W
Startdatum 10. Mai 2024
Alter 1.3 years
Typ internet

Technische Details

Klassifizierung Payload
Masse 960.00 kg
Trockenmasse 910.00 kg
Gesamtmasse 960.00 kg
Länge 0.30 m
Durchmesser 4.10 m
Spannweite 29.00 m
Form Box + pan
Hersteller SPXS
Bus-Typ Starlink V2MD
Phasenstatus In Orbit
Besitzer/Staat SPXS/US

Große Konstellationen

Loading constellations...